Regional Weather Roundup
Issued by NWS

Home | Current Version | Previous Version | Text Only | Print | Product List | Glossary Off
Versions: 1 2 3 4 5 6 7 8 9 10 11 12 13 14 15 16 17 18 19 20 21 22 23 24 25 26 27 28 29 30 31 32 33 34 35 36 37 38 39 40 41 42 43 44 45 46 47 48 49 50

000
ASUS43 KMKX 301921
RWRWI

WISCONSIN REGIONAL WEATHER ROUNDUP
NATIONAL WEATHER SERVICE MILWAUKEE/SULLIVAN WI
200 PM CDT TUE JUN 30 2015

NOTE: "FAIR" INDICATES FEW OR NO CLOUDS BELOW 12,000 FEET WITH NO
SIGNIFICANT WEATHER AND/OR OBSTRUCTIONS TO VISIBILITY.

WIZ001-002-006>008-014>016-023>028-302000-
NORTHWEST WISCONSIN

CITY           SKY/WX    TMP DP  RH WIND       PRES   REMARKS
SUPERIOR ARPT  MOSUNNY   60  50  69 NE9       29.99S
ASHLAND        MOSUNNY   61  51  70 NE9       30.00S
HAYWARD        MOSUNNY   64  52  64 N12       29.98R
SIREN          PTSUNNY   67  52  58 NE9       29.97R
CUMBERLAND     PTSUNNY   66  52  59 N8        29.96S
RICE LAKE      MOSUNNY   69  53  58 N6        29.96S
CHETEK         SUNNY     70  55  59 N7        29.94S
LADYSMITH      MOSUNNY   68  54  62 N10       29.95S
EAU CLAIRE     MOSUNNY   73  54  51 NW9       29.91F
MENOMONIE      MOSUNNY   71  56  57 NW6       29.93S
NEW RICHMOND   MOSUNNY   71  55  57 NE6       29.95S
OSCEOLA        MOSUNNY   71  58  63 N7        29.97F
$$

WIZ003>005-009-010-017-018-302000-
NORTH CENTRAL WISCONSIN

CITY           SKY/WX    TMP DP  RH WIND       PRES   REMARKS
MANITOWISH WTR CLOUDY    58  50  74 NE7       29.95S
ARBOR VITAE    CLOUDY    59  51  74 N7G18     29.95S
WOODRUFF       CLOUDY    59  51  74 N7G18     29.95S
RHINELANDER    CLOUDY    59  51  75 NW8       29.94S
EAGLE RIVER    CLOUDY   N/A N/A N/A N9G16     29.94S
LAND O LAKES   CLOUDY    55  49  82 N12       29.96R
PHILLIPS       CLOUDY    62  52  68 N8        29.93F
TOMAHAWK       CLOUDY    60  50  70 N10       29.94S
MEDFORD        CLOUDY    63  53  68 NE8       29.92F
MERRILL        CLOUDY    63  54  72 NE10      29.92F
$$

WIZ029-030-035-036-043>047-302000-
CENTRAL WISCONSIN

CITY           SKY/WX    TMP DP  RH WIND       PRES   REMARKS
WAUSAU         PTSUNNY   66  52  60 N8G20     29.89S
MOSINEE        NOT AVBL
MARSHFIELD     CLOUDY    69  52  54 N17       29.90S
STEVENS POINT  PTSUNNY   67  52  59 NW12      29.88F
WAUPACA        PTSUNNY   73  56  54 N10       29.86F
WAUTOMA        MOSUNNY   73  57  57 N10       29.86S
WISC RAPIDS    PTSUNNY   72  52  49 N12G17    29.89F
CAMP DOUGLAS   PTSUNNY   72  68  88 N14       29.87F
$$

WIZ011>013-019>022-031-037>040-048>050-302000-
NORTHEAST WISCONSIN

CITY           SKY/WX    TMP DP  RH WIND       PRES   REMARKS
ANTIGO         CLOUDY    62  54  75 N10       29.91S
SHAWANO        CLOUDY    70  56  60 N12       29.87S
OCONTO         CLOUDY    67  57  70 N10       29.84F
STURGEON BAY   CLOUDY    63  55  77 N10G16    29.87F
GREEN BAY      CLOUDY    68  58  70 N7        29.85F
MANITOWOC      CLOUDY    66  59  78 MISG      29.84F
APPLETON       PTSUNNY   66  54  63 N10       29.86S
CLINTONVILLE   CLOUDY    68  54  60 N10       29.86S
OSHKOSH        PTSUNNY   73  58  59 N15G22    29.84S
$$

WIZ032>034-041-042-053>061-302000-
SOUTHWEST WISCONSIN

CITY           SKY/WX    TMP DP  RH WIND       PRES   REMARKS
LA CROSSE      MOSUNNY   73  61  65 NW9       29.89F
SPARTA         PTSUNNY   73  56  54 NW7       29.90S
VIROQUA        CLOUDY    70  60  71 NW8       29.90F
BOSCOBEL       PTSUNNY   74  60  61 VRB7      29.87F
PRAIRIE DU CHI MOSUNNY   72  59  63 N6G21     29.88S
PLATTEVILLE    PTSUNNY   72  63  73 N9        29.88S
$$

WIZ056-057-062-063-064-067-068-302000-
SOUTH CENTRAL WISCONSIN

CITY           SKY/WX    TMP DP  RH WIND       PRES   REMARKS
REEDSBURG      PTSUNNY   72  60  65 NW7       29.86F
BARABOO/DELLS  PTSUNNY   73  55  53 NW5       29.86F
LONE ROCK      MOSUNNY   75  60  59 NW8       29.86F
MINERAL POINT  MOSUNNY   73  61  64 N10       29.88F
MADISON        PTSUNNY   75  59  57 N10       29.84F
MIDDLETON      PTSUNNY   76  60  57 NW8       29.85F
WATERTOWN      CLOUDY    72  61  67 NW9G16    29.84S
MONROE         PTSUNNY   70  61  73 N8        29.86F
JANESVILLE     PTSUNNY   72  61  68 NW13      29.85S
$$

WIZ051-052-058>065-066-070>072-302000-
SOUTHEAST WISCONSIN

CITY           SKY/WX    TMP DP  RH WIND       PRES   REMARKS
MILWAUKEE      PTSUNNY   66  59  78 N17G24    29.82S
WAUKESHA       PTSUNNY   70  57  64 NW12      29.84S
MILWAUKEE/TIMM CLOUDY    73  55  53 N15       29.82F
RACINE         CLOUDY    68  58  70 N12       29.84R
BURLINGTON     PTSUNNY   69  58  67 NW10      29.83S
KENOSHA        PTSUNNY   74  60  61 NW12      29.82S
FOND DU LAC    PTSUNNY   73  59  61 N13       29.84F
SHEBOYGAN      CLOUDY    66  59  78 NE9       29.83F
WEST BEND      CLOUDY    72  59  64 NW13      29.83S
JUNEAU         MOSUNNY   71  58  64 N8        29.85F
$$

LSZ147-162-302000-
LAKE SUPERIOR

STATION/POSITION TIME  TEMP    WIND        PRES    WAVE
                       AIR SEA DIR/SP/G            HT/PER
                 (UTC) (F)     (DEG/KT/KT) (MB)    (FT/S)
W MID LAKE BUOY  1850   44 39  140/  4/  4 1016.5R   1
DEVILS ISLAND    1900   54     120/  8/ 12 1016.1F
SAXON HARBOR     1800   53      50/ 10/ 13 1015.9S
$$

LMZ867-665-643>646-302000-
LAKE MICHIGAN

STATION/POSITION TIME  TEMP    WIND        PRES    WAVE
                       AIR SEA DIR/SP/G            HT/PER
                 (UTC) (F)     (DEG/KT/KT) (MB)    (FT/S)
CHAMBERS ISLAND  1800   62     340/  9/ 13 1011.2R
N MID LAKE BUOY  1850   49 44  310/ 14/ 16 1010.7R   2/ 4
NORTHPORT PIER   1800   56     350/ 15/ 17 1011.2S
SISTER BAY       1844   61      10/ 11/ 14   N/A
ALGOMA LAKESHORE 1810          360/ 10/ 12   N/A
KEWAUNEE LAKESHO 1800   61      10/  6/ 10 1010.4R
SHEBOYGAN LAKESH 1900   58      30/ 18/ 20 1010.5F
PORT WASHINGTON  1800   63      50/ 12/ 14 1010.5S
ATWATER BUOY     1900   61      20/ 10/ 16 1011.3S
MILWAUKEE LAKESH 1900   61      20/ 16/ 19   N/A
KENOSHA   LAKESH 1900   63      30/ 12/ 16 1009.8R
$$

TC  - TEMPERATURE IN CELSIUS
VSB - VISIBILITY IN STATUTE MILES
WCI - WIND CHILL INDEX
HX  - HEAT INDEX




USA.gov is the U.S. government's official web portal to all federal, state and local government web resources and services.